Time,TemperatureF,DewpointF,PressureIn,WindDirection,WindDirectionDegrees,WindSpeedMPH,WindSpeedGustMPH,Humidity,HourlyPrecipIn,Conditions,Clouds,dailyrainin,SoftwareType,DateUTC
2013-01-15 00:05:00,30.5,30.3,30.55,East,93,0.0,0.0,99,0.00,,,0.00,Wunderground v.1.15,2013-01-15 08:05:00,
2013-01-15 00:10:00,30.5,30.3,30.54,East,93,0.0,0.0,99,0.00,,,0.00,Wunderground v.1.15,2013-01-15 08:10:00,
2013-01-15 00:15:00,30.5,30.3,30.54,East,93,0.0,0.0,99,0.00,,,0.00,Wunderground v.1.15,2013-01-15 08:15:00,
2013-01-15 00:20:00,30.5,30.3,30.54,East,93,0.0,0.0,99,0.00,,,0.00,Wunderground v.1.15,2013-01-15 08:20:00,
2013-01-15 00:25:00,30.4,30.2,30.54,East,93,0.0,0.0,99,0.00,,,0.00,Wunderground v.1.15,2013-01-15 08:25:00,
2013-01-15 00:35:00,30.5,30.3,30.54,East,93,0.0,0.0,99,0.00,,,0.00,Wunderground v.1.15,2013-01-15 08:35:00,
2013-01-15 00:40:00,30.5,30.3,30.54,East,93,0.0,0.0,99,0.00,,,0.00,Wunderground v.1.15,2013-01-15 08:40:00,
2013-01-15 00:55:00,30.5,30.3,30.54,East,93,0.0,0.0,99,0.00,,,0.00,Wunderground v.1.15,2013-01-15 08:55:00,
2013-01-15 01:05:00,30.4,30.2,30.54,East,93,0.0,0.0,99,0.00,,,0.00,Wunderground v.1.15,2013-01-15 09:05:00,
2013-01-15 01:10:00,30.4,30.2,30.54,East,93,0.0,0.0,99,0.00,,,0.00,Wunderground v.1.15,2013-01-15 09:10:00,
2013-01-15 01:15:00,30.4,30.2,30.55,East,93,0.0,0.0,99,0.00,,,0.00,Wunderground v.1.15,2013-01-15 09:15:00,
2013-01-15 01:20:00,30.4,30.2,30.55,East,93,0.0,0.0,99,0.00,,,0.00,Wunderground v.1.15,2013-01-15 09:20:00,
2013-01-15 01:25:00,30.3,30.1,30.55,East,93,0.0,0.0,99,0.00,,,0.00,Wunderground v.1.15,2013-01-15 09:25:00,
2013-01-15 01:35:00,30.2,30.0,30.55,East,93,0.0,0.0,99,0.00,,,0.00,Wunderground v.1.15,2013-01-15 09:35:00,
2013-01-15 01:40:00,30.2,30.0,30.55,East,93,0.0,0.0,99,0.00,,,0.00,Wunderground v.1.15,2013-01-15 09:40:00,
2013-01-15 01:45:00,30.2,30.0,30.55,East,93,0.0,0.0,99,0.00,,,0.00,Wunderground v.1.15,2013-01-15 09:45:00,
2013-01-15 01:50:00,30.2,30.0,30.55,East,93,0.0,0.0,99,0.00,,,0.00,Wunderground v.1.15,2013-01-15 09:50:00,
2013-01-15 01:55:00,30.1,29.9,30.55,East,94,0.0,1.0,99,0.00,,,0.00,Wunderground v.1.15,2013-01-15 09:55:00,
2013-01-15 02:00:00,30.1,29.9,30.55,East,93,0.0,0.0,99,0.00,,,0.00,Wunderground v.1.15,2013-01-15 10:00:00,
2013-01-15 02:10:00,30.2,30.0,30.56,East,92,0.0,0.0,99,0.00,,,0.00,Wunderground v.1.15,2013-01-15 10:10:00,
2013-01-15 02:15:00,30.1,29.9,30.56,East,92,0.0,0.0,99,0.00,,,0.00,Wunderground v.1.15,2013-01-15 10:15:00,
2013-01-15 02:20:00,30.1,29.9,30.56,East,87,0.0,0.0,99,0.00,,,0.00,Wunderground v.1.15,2013-01-15 10:20:00,
2013-01-15 02:25:00,30.1,29.9,30.56,East,91,0.0,0.0,99,0.00,,,0.00,Wunderground v.1.15,2013-01-15 10:25:00,
2013-01-15 02:30:00,30.1,29.9,30.56,East,90,0.0,0.0,99,0.00,,,0.00,Wunderground v.1.15,2013-01-15 10:30:00,
2013-01-15 02:40:00,30.1,29.9,30.57,SE,145,0.0,0.0,99,0.00,,,0.00,Wunderground v.1.15,2013-01-15 10:40:00,
2013-01-15 02:45:00,30.1,29.9,30.57,SE,145,0.0,0.0,99,0.00,,,0.00,Wunderground v.1.15,2013-01-15 10:45:00,
2013-01-15 02:50:00,30.0,29.8,30.57,ESE,120,0.0,1.0,99,0.00,,,0.00,Wunderground v.1.15,2013-01-15 10:50:00,
2013-01-15 02:55:00,30.0,29.8,30.56,ESE,120,0.0,1.0,99,0.00,,,0.00,Wunderground v.1.15,2013-01-15 10:55:00,
2013-01-15 03:05:00,29.9,29.7,30.57,ESE,115,0.0,0.0,99,0.00,,,0.00,Wunderground v.1.15,2013-01-15 11:05:00,
2013-01-15 03:10:00,29.9,29.7,30.57,ESE,115,0.0,0.0,99,0.00,,,0.00,Wunderground v.1.15,2013-01-15 11:10:00,
2013-01-15 03:15:00,29.8,29.6,30.57,ESE,115,0.0,0.0,99,0.00,,,0.00,Wunderground v.1.15,2013-01-15 11:15:00,
2013-01-15 03:25:00,29.6,29.4,30.56,ESE,115,0.0,0.0,99,0.00,,,0.00,Wunderground v.1.15,2013-01-15 11:25:00,
2013-01-15 03:30:00,29.5,29.3,30.56,ESE,115,0.0,0.0,99,0.00,,,0.00,Wunderground v.1.15,2013-01-15 11:30:00,
2013-01-15 03:35:00,29.5,29.3,30.57,ESE,115,0.0,0.0,99,0.00,,,0.00,Wunderground v.1.15,2013-01-15 11:35:00,
2013-01-15 03:40:00,29.5,29.3,30.57,ESE,115,0.0,0.0,99,0.00,,,0.00,Wunderground v.1.15,2013-01-15 11:40:00,
2013-01-15 03:50:00,29.4,29.2,30.56,ESE,115,0.0,0.0,99,0.00,,,0.00,Wunderground v.1.15,2013-01-15 11:50:00,
2013-01-15 03:55:00,29.4,29.2,30.57,ESE,115,0.0,0.0,99,0.00,,,0.00,Wunderground v.1.15,2013-01-15 11:55:00,
2013-01-15 04:00:00,29.4,29.2,30.56,ESE,115,0.0,0.0,99,0.00,,,0.00,Wunderground v.1.15,2013-01-15 12:00:00,
2013-01-15 04:05:00,29.4,29.2,30.56,ESE,115,0.0,0.0,99,0.00,,,0.00,Wunderground v.1.15,2013-01-15 12:05:00,
2013-01-15 04:15:00,29.5,29.3,30.57,ESE,115,0.0,0.0,99,0.00,,,0.00,Wunderground v.1.15,2013-01-15 12:15:00,
2013-01-15 04:20:00,29.5,29.3,30.56,ESE,115,0.0,0.0,99,0.00,,,0.00,Wunderground v.1.15,2013-01-15 12:20:00,
2013-01-15 04:25:00,29.6,29.4,30.56,ESE,115,0.0,0.0,99,0.00,,,0.00,Wunderground v.1.15,2013-01-15 12:25:00,
2013-01-15 04:35:00,29.6,29.4,30.56,ESE,115,0.0,0.0,99,0.00,,,0.00,Wunderground v.1.15,2013-01-15 12:35:00,
2013-01-15 04:40:00,29.5,29.3,30.56,ESE,115,0.0,0.0,99,0.00,,,0.00,Wunderground v.1.15,2013-01-15 12:40:00,
2013-01-15 04:45:00,29.4,29.2,30.56,ESE,108,0.0,0.0,99,0.00,,,0.00,Wunderground v.1.15,2013-01-15 12:45:00,
2013-01-15 04:50:00,29.4,29.2,30.56,ESE,108,0.0,0.0,99,0.00,,,0.00,Wunderground v.1.15,2013-01-15 12:50:00,
2013-01-15 05:00:00,29.4,29.2,30.55,ESE,107,0.0,0.0,99,0.00,,,0.00,Wunderground v.1.15,2013-01-15 13:00:00,
2013-01-15 05:05:00,29.4,29.2,30.55,ESE,107,0.0,0.0,99,0.00,,,0.00,Wunderground v.1.15,2013-01-15 13:05:00,
2013-01-15 05:10:00,29.4,29.2,30.55,ESE,107,0.0,0.0,99,0.00,,,0.00,Wunderground v.1.15,2013-01-15 13:10:00,
2013-01-15 05:15:00,29.4,29.2,30.55,ESE,106,0.0,1.0,99,0.00,,,0.00,Wunderground v.1.15,2013-01-15 13:15:00,
2013-01-15 05:20:00,29.3,29.1,30.55,ESE,106,0.0,0.0,99,0.00,,,0.00,Wunderground v.1.15,2013-01-15 13:20:00,
2013-01-15 05:30:00,29.3,29.1,30.55,ESE,115,0.0,0.0,99,0.00,,,0.00,Wunderground v.1.15,2013-01-15 13:30:00,
2013-01-15 05:35:00,29.2,29.0,30.55,ESE,105,0.0,0.0,99,0.00,,,0.00,Wunderground v.1.15,2013-01-15 13:35:00,
2013-01-15 05:40:00,29.2,29.0,30.55,ESE,105,0.0,0.0,99,0.00,,,0.00,Wunderground v.1.15,2013-01-15 13:40:00,
2013-01-15 05:45:00,29.1,28.9,30.55,ESE,105,0.0,0.0,99,0.00,,,0.00,Wunderground v.1.15,2013-01-15 13:45:00,
2013-01-15 05:50:00,29.0,28.8,30.55,ESE,105,0.0,0.0,99,0.00,,,0.00,Wunderground v.1.15,2013-01-15 13:50:00,
2013-01-15 06:00:00,28.9,28.7,30.55,East,91,0.0,0.0,99,0.00,,,0.00,Wunderground v.1.15,2013-01-15 14:00:00,
2013-01-15 06:05:00,29.0,28.8,30.55,East,91,0.0,0.0,99,0.00,,,0.00,Wunderground v.1.15,2013-01-15 14:05:00,
2013-01-15 06:10:00,29.0,28.8,30.56,East,91,0.0,0.0,99,0.00,,,0.00,Wunderground v.1.15,2013-01-15 14:10:00,
2013-01-15 06:20:00,28.9,28.7,30.56,East,91,0.0,0.0,99,0.00,,,0.00,Wunderground v.1.15,2013-01-15 14:20:00,
2013-01-15 06:25:00,28.9,28.7,30.56,East,91,0.0,0.0,99,0.00,,,0.00,Wunderground v.1.15,2013-01-15 14:25:00,
2013-01-15 06:30:00,28.9,28.7,30.56,East,91,0.0,0.0,99,0.00,,,0.00,Wunderground v.1.15,2013-01-15 14:30:00,
2013-01-15 06:35:00,28.9,28.7,30.56,East,91,0.0,0.0,99,0.00,,,0.00,Wunderground v.1.15,2013-01-15 14:35:00,
2013-01-15 06:40:00,28.9,28.7,30.56,East,91,0.0,0.0,99,0.00,,,0.00,Wunderground v.1.15,2013-01-15 14:40:00,
2013-01-15 06:45:00,28.9,28.7,30.56,East,91,0.0,0.0,99,0.00,,,0.00,Wunderground v.1.15,2013-01-15 14:45:00,
2013-01-15 06:55:00,28.9,28.7,30.57,East,91,0.0,0.0,99,0.00,,,0.00,Wunderground v.1.15,2013-01-15 14:55:00,
2013-01-15 07:00:00,28.9,28.7,30.57,East,91,0.0,0.0,99,0.00,,,0.00,Wunderground v.1.15,2013-01-15 15:00:00,
2013-01-15 07:05:00,28.9,28.7,30.57,East,91,0.0,0.0,99,0.00,,,0.00,Wunderground v.1.15,2013-01-15 15:05:00,
2013-01-15 07:10:00,28.8,28.6,30.57,East,91,0.0,0.0,99,0.00,,,0.00,Wunderground v.1.15,2013-01-15 15:10:00,
2013-01-15 07:15:00,28.8,28.6,30.57,East,91,0.0,0.0,99,0.00,,,0.00,Wunderground v.1.15,2013-01-15 15:15:00,
2013-01-15 07:20:00,28.8,28.6,30.57,East,91,0.0,0.0,99,0.00,,,0.00,Wunderground v.1.15,2013-01-15 15:20:00,
2013-01-15 07:30:00,28.7,28.5,30.58,East,91,0.0,0.0,99,0.00,,,0.00,Wunderground v.1.15,2013-01-15 15:30:00,
2013-01-15 07:35:00,28.6,28.4,30.58,East,91,0.0,0.0,99,0.00,,,0.00,Wunderground v.1.15,2013-01-15 15:35:00,
2013-01-15 07:40:00,28.6,28.4,30.58,East,91,0.0,0.0,99,0.00,,,0.00,Wunderground v.1.15,2013-01-15 15:40:00,
2013-01-15 07:45:00,28.6,28.4,30.57,East,91,0.0,0.0,99,0.00,,,0.00,Wunderground v.1.15,2013-01-15 15:45:00,
2013-01-15 07:50:00,28.6,28.4,30.58,East,91,0.0,0.0,99,0.00,,,0.00,Wunderground v.1.15,2013-01-15 15:50:00,
2013-01-15 07:55:00,28.6,28.4,30.58,East,91,0.0,0.0,99,0.00,,,0.00,Wunderground v.1.15,2013-01-15 15:55:00,
2013-01-15 08:05:00,28.5,28.3,30.58,East,91,0.0,0.0,99,0.00,,,0.00,Wunderground v.1.15,2013-01-15 16:05:00,
2013-01-15 08:10:00,28.5,28.3,30.58,East,91,0.0,0.0,99,0.00,,,0.00,Wunderground v.1.15,2013-01-15 16:10:00,
2013-01-15 08:15:00,28.5,28.3,30.58,East,91,0.0,0.0,99,0.00,,,0.00,Wunderground v.1.15,2013-01-15 16:15:00,
2013-01-15 08:20:00,28.6,28.4,30.58,East,91,0.0,0.0,99,0.00,,,0.00,Wunderground v.1.15,2013-01-15 16:20:00,
2013-01-15 08:30:00,28.7,28.5,30.59,East,91,0.0,0.0,99,0.00,,,0.00,Wunderground v.1.15,2013-01-15 16:30:00,
2013-01-15 08:35:00,28.7,28.5,30.59,East,91,0.0,0.0,99,0.00,,,0.00,Wunderground v.1.15,2013-01-15 16:35:00,
2013-01-15 08:40:00,28.7,28.5,30.59,East,92,0.0,0.0,99,0.00,,,0.00,Wunderground v.1.15,2013-01-15 16:40:00,
2013-01-15 08:50:00,28.9,28.7,30.59,SE,136,0.0,0.0,99,0.00,,,0.00,Wunderground v.1.15,2013-01-15 16:50:00,
2013-01-15 08:55:00,29.0,28.8,30.59,SE,136,0.0,0.0,99,0.00,,,0.00,Wunderground v.1.15,2013-01-15 16:55:00,
2013-01-15 09:00:00,29.1,28.9,30.59,SE,136,0.0,0.0,99,0.00,,,0.00,Wunderground v.1.15,2013-01-15 17:00:00,
2013-01-15 09:05:00,29.3,29.3,30.59,SE,136,0.0,0.0,100,0.00,,,0.00,Wunderground v.1.15,2013-01-15 17:05:00,
2013-01-15 09:10:00,29.4,29.4,30.59,SE,136,0.0,0.0,100,0.00,,,0.00,Wunderground v.1.15,2013-01-15 17:10:00,
2013-01-15 09:20:00,29.8,29.8,30.59,SE,136,0.0,0.0,100,0.00,,,0.00,Wunderground v.1.15,2013-01-15 17:20:00,
2013-01-15 09:25:00,30.0,30.0,30.59,WSW,237,0.0,1.0,100,0.00,,,0.00,Wunderground v.1.15,2013-01-15 17:25:00,
2013-01-15 09:30:00,30.2,30.2,30.59,SSW,193,0.0,0.0,100,0.00,,,0.00,Wunderground v.1.15,2013-01-15 17:30:00,
2013-01-15 09:35:00,30.5,30.5,30.59,SSW,193,0.0,0.0,100,0.00,,,0.00,Wunderground v.1.15,2013-01-15 17:35:00,
2013-01-15 10:40:00,36.5,36.2,30.58,West,279,0.0,0.0,99,0.00,,,0.00,Wunderground v.1.15,2013-01-15 18:40:00,
2013-01-15 10:45:00,37.1,36.3,30.58,SW,233,0.0,0.0,97,0.00,,,0.00,Wunderground v.1.15,2013-01-15 18:45:00,
2013-01-15 10:50:00,37.7,36.7,30.58,SW,231,0.0,1.0,96,0.00,,,0.00,Wunderground v.1.15,2013-01-15 18:50:00,
2013-01-15 11:00:00,39.5,37.9,30.58,SW,230,1.0,1.0,94,0.00,,,0.00,Wunderground v.1.15,2013-01-15 19:00:00,
2013-01-15 11:05:00,40.0,38.1,30.58,SSE,155,1.0,1.0,93,0.00,,,0.00,Wunderground v.1.15,2013-01-15 19:05:00,
2013-01-15 11:15:00,40.9,39.0,30.58,South,191,1.0,2.0,93,0.00,,,0.00,Wunderground v.1.15,2013-01-15 19:15:00,
2013-01-15 11:20:00,41.8,39.4,30.57,South,191,1.0,1.0,91,0.00,,,0.00,Wunderground v.1.15,2013-01-15 19:20:00,
2013-01-15 11:25:00,42.5,39.8,30.57,NW,312,1.0,1.0,90,0.00,,,0.00,Wunderground v.1.15,2013-01-15 19:25:00,
2013-01-15 11:30:00,42.9,39.9,30.57,WSW,240,1.0,3.0,89,0.00,,,0.00,Wunderground v.1.15,2013-01-15 19:30:00,
2013-01-15 11:40:00,43.1,39.5,30.57,SW,232,1.0,1.0,87,0.00,,,0.00,Wunderground v.1.15,2013-01-15 19:40:00,
2013-01-15 11:45:00,43.1,39.5,30.56,South,174,1.0,4.0,87,0.00,,,0.00,Wunderground v.1.15,2013-01-15 19:45:00,
2013-01-15 11:50:00,43.5,39.6,30.56,SSE,164,1.0,1.0,86,0.00,,,0.00,Wunderground v.1.15,2013-01-15 19:50:00,
2013-01-15 11:55:00,43.4,39.8,30.56,South,185,1.0,1.0,87,0.00,,,0.00,Wunderground v.1.15,2013-01-15 19:55:00,
2013-01-15 12:00:00,43.3,39.4,30.55,SE,134,1.0,1.0,86,0.00,,,0.00,Wunderground v.1.15,2013-01-15 20:00:00,
2013-01-15 12:10:00,44.0,39.5,30.55,SW,230,1.0,1.0,84,0.00,,,0.00,Wunderground v.1.15,2013-01-15 20:10:00,
2013-01-15 12:15:00,43.9,39.7,30.55,SW,224,1.0,1.0,85,0.00,,,0.00,Wunderground v.1.15,2013-01-15 20:15:00,
2013-01-15 12:20:00,44.0,39.5,30.55,SW,226,1.0,1.0,84,0.00,,,0.00,Wunderground v.1.15,2013-01-15 20:20:00,
2013-01-15 12:25:00,44.3,39.5,30.55,SW,224,2.0,2.0,83,0.00,,,0.00,Wunderground v.1.15,2013-01-15 20:25:00,
2013-01-15 12:30:00,44.4,39.6,30.54,NNW,328,2.0,2.0,83,0.00,,,0.00,Wunderground v.1.15,2013-01-15 20:30:00,
2013-01-15 12:35:00,44.4,39.6,30.54,SSE,154,2.0,2.0,83,0.00,,,0.00,Wunderground v.1.15,2013-01-15 20:35:00,
2013-01-15 12:45:00,44.2,39.4,30.54,SW,214,1.0,1.0,83,0.00,,,0.00,Wunderground v.1.15,2013-01-15 20:45:00,
2013-01-15 12:50:00,44.0,39.5,30.54,WSW,241,1.0,3.0,84,0.00,,,0.00,Wunderground v.1.15,2013-01-15 20:50:00,
2013-01-15 12:55:00,44.0,39.8,30.54,WSW,256,1.0,3.0,85,0.00,,,0.00,Wunderground v.1.15,2013-01-15 20:55:00,
2013-01-15 13:00:00,44.2,40.0,30.54,SSE,168,2.0,4.0,85,0.00,,,0.00,Wunderground v.1.15,2013-01-15 21:00:00,
2013-01-15 13:05:00,44.1,40.2,30.54,SW,231,1.0,4.0,86,0.00,,,0.00,Wunderground v.1.15,2013-01-15 21:05:00,
2013-01-15 13:10:00,44.2,40.0,30.54,West,266,1.0,1.0,85,0.00,,,0.00,Wunderground v.1.15,2013-01-15 21:10:00,
2013-01-15 13:20:00,44.2,40.0,30.54,SSE,162,1.0,1.0,85,0.00,,,0.00,Wunderground v.1.15,2013-01-15 21:20:00,
2013-01-15 13:25:00,44.1,40.2,30.54,SW,228,1.0,3.0,86,0.00,,,0.00,Wunderground v.1.15,2013-01-15 21:25:00,
2013-01-15 13:30:00,44.2,40.3,30.54,West,264,1.0,2.0,86,0.00,,,0.00,Wunderground v.1.15,2013-01-15 21:30:00,
2013-01-15 13:35:00,44.3,40.4,30.54,SSE,158,1.0,2.0,86,0.00,,,0.00,Wunderground v.1.15,2013-01-15 21:35:00,
2013-01-15 13:40:00,44.5,40.3,30.54,SSW,207,2.0,2.0,85,0.00,,,0.00,Wunderground v.1.15,2013-01-15 21:40:00,
2013-01-15 13:45:00,44.7,40.5,30.54,SE,129,2.0,2.0,85,0.00,,,0.00,Wunderground v.1.15,2013-01-15 21:45:00,
2013-01-15 13:50:00,44.9,40.7,30.54,WSW,250,2.0,2.0,85,0.00,,,0.00,Wunderground v.1.15,2013-01-15 21:50:00,
2013-01-15 14:00:00,45.2,41.0,30.54,SW,218,1.0,1.0,85,0.00,,,0.00,Wunderground v.1.15,2013-01-15 22:00:00,
2013-01-15 14:05:00,45.4,41.2,30.54,SSE,155,2.0,2.0,85,0.00,,,0.00,Wunderground v.1.15,2013-01-15 22:05:00,
2013-01-15 16:05:00,46.8,42.8,30.54,South,178,0.0,0.0,86,0.00,,,0.00,Wunderground v.1.15,2013-01-16 00:05:00,
2013-01-15 16:15:00,47.2,42.9,30.54,WNW,290,1.0,1.0,85,0.00,,,0.00,Wunderground v.1.15,2013-01-16 00:15:00,
2013-01-15 16:20:00,47.1,42.8,30.54,SE,140,1.0,1.0,85,0.00,,,0.00,Wunderground v.1.15,2013-01-16 00:20:00,
2013-01-15 16:25:00,47.1,42.8,30.54,SSE,153,1.0,1.0,85,0.00,,,0.00,Wunderground v.1.15,2013-01-16 00:25:00,
2013-01-15 16:30:00,47.0,42.7,30.53,SW,223,1.0,1.0,85,0.00,,,0.00,Wunderground v.1.15,2013-01-16 00:30:00,
2013-01-15 16:35:00,46.7,42.4,30.53,SE,146,1.0,2.0,85,0.00,,,0.00,Wunderground v.1.15,2013-01-16 00:35:00,
2013-01-15 16:40:00,46.6,42.3,30.54,SSE,153,1.0,1.0,85,0.00,,,0.00,Wunderground v.1.15,2013-01-16 00:40:00,
2013-01-15 16:50:00,46.5,41.9,30.54,SSE,150,1.0,2.0,84,0.00,,,0.00,Wunderground v.1.15,2013-01-16 00:50:00,
2013-01-15 16:55:00,46.5,41.9,30.53,SSW,207,1.0,2.0,84,0.00,,,0.00,Wunderground v.1.15,2013-01-16 00:55:00,
2013-01-15 17:00:00,46.3,41.4,30.54,SSE,148,1.0,1.0,83,0.00,,,0.00,Wunderground v.1.15,2013-01-16 01:00:00,
2013-01-15 17:05:00,46.1,41.5,30.54,SSW,201,1.0,1.0,84,0.00,,,0.00,Wunderground v.1.15,2013-01-16 01:05:00,
2013-01-15 17:10:00,45.9,41.3,30.53,ESE,117,1.0,1.0,84,0.00,,,0.00,Wunderground v.1.15,2013-01-16 01:10:00,
2013-01-15 17:15:00,45.9,41.0,30.54,SSE,160,1.0,1.0,83,0.00,,,0.00,Wunderground v.1.15,2013-01-16 01:15:00,
2013-01-15 17:25:00,45.6,40.7,30.53,South,191,1.0,3.0,83,0.00,,,0.00,Wunderground v.1.15,2013-01-16 01:25:00,
2013-01-15 17:30:00,45.6,40.7,30.53,SE,137,1.0,1.0,83,0.00,,,0.00,Wunderground v.1.15,2013-01-16 01:30:00,